* Astronomy

Members Login
Username 
 
Password 
    Remember Me  
Post Info TOPIC: Asteroid 2012 HO15


L

Posts: 131433
Date:
Asteroid 2012 HO15
Permalink  
 


Orbital elements:
2012 HO15                                                Earth MOID = 0.0995 AU
Epoch 2012 Mar. 14.0 TT = JDT 2456000.5                 MPC
M 324.37200              (2000.0)            P               Q
n   0.25875442     Peri.  111.70204     +0.48383543     +0.87296726
a   2.4389947      Node   188.10823     -0.87266039     +0.48658658
e   0.6446514      Incl.   26.03131     +0.06608419     +0.03408305
P   3.81           H   19.3           G   0.15           U   8

MPEC 2012 - H62



__________________
Page 1 of 1  sorted by
 
Quick Reply

Please log in to post quick replies.



Create your own FREE Forum
Report Abuse
Powered by ActiveBoard